Regional Weather Roundup
Issued by NWS

Current Version | Previous Version | Text Only | Print | Product List | Glossary On
Versions: 1 2 3 4 5 6 7 8 9 10 11 12 13 14 15 16 17 18 19 20 21 22 23 24 25 26 27 28 29 30 31 32 33 34 35 36 37 38 39 40 41 42 43 44 45 46 47 48 49 50
000
ASUS44 KBMX 020310
RWRAL

ALABAMA REGIONAL WEATHER ROUNDUP
NATIONAL WEATHER SERVICE BIRMINGHAM AL
1000 PM CDT WED APR 01 2015

NOTE: "FAIR" INDICATES FEW OR NO CLOUDS BELOW 12,000 FEET
WITH NO SIGNIFICANT WEATHER AND/OR OBSTRUCTIONS TO VISIBILITY.

THE REMARK "TC" DENOTES TEMPERATURE IN DEGREES CELSIUS.

ALZ001>011-014-016>018-020-020400-
NORTH ALABAMA

CITY           SKY/WX    TMP DP  RH WIND       PRES   REMARKS
MUSCLE SHOALS  PTCLDY    66  56  70 SE7       30.03S
HUNTSVILLE     MOCLDY    67  54  63 E6        30.05S
DECATUR        MOCLDY    63  57  81 SE3       30.05S
HALEYVILLE       N/A     67  60  78 CALM      30.08R
GADSDEN        PTCLDY    61  54  77 CALM      30.07R
$$

ALZ012-013-022-023-030>036-040>044-020400-
WEST CENTRAL ALABAMA

CITY           SKY/WX    TMP DP  RH WIND       PRES   REMARKS
TUSCALOOSA     MOCLDY    68  62  81 SW3       30.05R
$$

ALZ015-024>027-033>036-040>044-020400-
CENTRAL ALABAMA

CITY           SKY/WX    TMP DP  RH WIND       PRES   REMARKS
BIRMINGHAM     PTCLDY    69  56  62 CALM      30.07S
MONTGOMERY     CLEAR     71  57  61 CALM      30.08R
SHELBY CO ARPT PTCLDY    69  59  70 CALM      30.07R
MAXWELL AFB    CLEAR     69  60  73 CALM      30.07R
GREENVILLE     FAIR      68  56  65 SW5       30.09R
$$

ALZ019-021-028-029-037-038-045>048-020400-
EAST CENTRAL ALABAMA

CITY           SKY/WX    TMP DP  RH WIND       PRES   REMARKS
ANNISTON       CLEAR     63  57  81 NE3       30.09R
ALEXANDER CITY CLEAR     64  57  76 CALM      30.09R
AUBURN         PTCLDY    63  52  67 NE5       30.12S
$$

ALZ051>064-020400-
SOUTHWEST ALABAMA

CITY           SKY/WX    TMP DP  RH WIND       PRES   REMARKS
MOBILE         CLOUDY    67  65  93 SE6       30.10R
BROOKLEY FIELD CLOUDY    69  66  90 S3        30.10R
EVERGREEN      MOCLDY    69  60  73 S7        30.10R
$$

ALZ049-050-065>069-020400-
SOUTHEAST ALABAMA

CITY           SKY/WX    TMP DP  RH WIND       PRES   REMARKS
DOTHAN         PTCLDY    69  61  75 SW9       30.14R
OZARK          MOCLDY    68  59  73 S6        30.10R
TROY           CLEAR     65  57  75 SW3       30.10R
EUFAULA        FAIR      68  58  70 S5        30.08R
$$



USA.gov is the U.S. government's official web portal to all federal, state and local government web resources and services.